This is the latest recevied weather packets stored in our database for station/object WA4TPR. If no packets are shown the sender has not sent any weather packets the latest 10 day(s).
| Time | Temp. | Humidity | Pressure | Rain* | Wind** | Luminosity | Snow |
|---|---|---|---|---|---|---|---|
| 1777906735 | 25.56° C | 72% | 1020.7 hPa | 0 mm | - | 624 W/m² | - |
| 1777906431 | 25° C | 72% | 1020.8 hPa | 0 mm | - | 598 W/m² | - |
| 1777906128 | 25° C | 71% | 1020.7 hPa | 0 mm | - | 590 W/m² | - |
| 1777905824 | 25° C | 73% | 1020.6 hPa | 0 mm | - | 581 W/m² | - |
| 1777905522 | 24.44° C | 74% | 1020.6 hPa | 0 mm | - | 551 W/m² | - |
| 1777905218 | 25° C | 74% | 1020.5 hPa | 0 mm | - | 545 W/m² | - |
| 1777904916 | 25° C | 75% | 1020.5 hPa | 0 mm | - | 533 W/m² | - |
| 1777904613 | 24.44° C | 76% | 1020.5 hPa | 0 mm | - | 517 W/m² | - |
| 1777904310 | 24.44° C | 76% | 1020.4 hPa | 0 mm | - | 497 W/m² | - |
| 1777904007 | 24.44° C | 76% | 1020.3 hPa | 0 mm | - | 487 W/m² | - |
| 1777903704 | 24.44° C | 77% | 1020.3 hPa | 0 mm | - | 474 W/m² | - |
| 1777903399 | 24.44° C | 78% | 1020.3 hPa | 0 mm | - | 462 W/m² | - |
| 1777903096 | 23.33° C | 78% | 1020.3 hPa | 0 mm | - | 509 W/m² | - |
| 1777902793 | 23.33° C | 79% | 1020.3 hPa | 0 mm | - | 244 W/m² | - |
| 1777902490 | 23.33° C | 80% | 1020.3 hPa | 0 mm | - | 215 W/m² | - |
| 1777902187 | 22.78° C | 81% | 1020.3 hPa | 0 mm | - | 200 W/m² | - |
| 1777901885 | 22.78° C | 80% | 1020.2 hPa | 0 mm | - | 127 W/m² | - |
| 1777901582 | 22.78° C | 80% | 1020.2 hPa | 0 mm | - | 115 W/m² | - |
| 1777901279 | 22.78° C | 81% | 1020.2 hPa | 0 mm | - | 109 W/m² | - |
| 1777900977 | 22.78° C | 82% | 1019.9 hPa | 0 mm | - | 136 W/m² | - |
| 1777900674 | 22.78° C | 83% | 1020.2 hPa | 0 mm | - | 136 W/m² | - |
| 1777900371 | 22.78° C | 83% | 1020 hPa | 0 mm | - | 145 W/m² | - |
| 1777900068 | 22.22° C | 83% | 1020 hPa | 0 mm | - | 149 W/m² | - |
| 1777899764 | 22.22° C | 84% | 1020.1 hPa | 0 mm | - | 138 W/m² | - |
| 1777899461 | 22.22° C | 84% | 1020 hPa | 0 mm | - | 126 W/m² | - |
* Rain latest hour (hover to see other rain measurements)
** Current wind speed in m/s (hover to see current wind gust speed)